SKYSAT-C7 (42991 NORAD) Tracking and Keplerian Element Data

This shows tracking and keplerian element data for the satellite.

Feedback or suggestion? Click here.




ElementValue
Catalog42991
NameSKYSAT-C7
Epoch Orbit40602
Epoch Day34.79483137
Epoch Year2025
RAAN165.8202
Inclination97.3882
Eccentricity0.0007577
Argument of Perigee109.2365
Mean Anonmoly250.9696
Mean Motion15.3185241
Decay Rate0.00018178
L11 42991U 17068E 25034.79483137 .00018178 00000+0 59235-3 0 9994
L22 42991 97.3882 165.8202 0007577 109.2365 250.9696 15.31852410406029



Live tracking and technical data element details for SKYSAT-C7 (NORAD 42991). SKYSAT-C7 can be tracked NOW for your location showing map with azimuth and elevation plus other details from your city location.







IsCatalogInMostPopularTable: catalog: 42991, numindb: 692
Update: records affected: 1



GetName: 42991 SKYSAT-C7

Hit Count: updated at: Wed, 18 Jun 2025 05:31:07 GMT